Tracking 25710 objects as of 6-Jul-2022
HD Live streaming from Space Station
objects crossing your sky now

FENGYUN 1C DEB

Track FENGYUN 1C DEB now!
10-day predictions


NORAD ID: 31829
Int'l Code: 1999-025CHT
Perigee: 821.0 km
Apogee: 1,073.5 km
Inclination: 98.9 °
Period: 103.8 minutes
Semi major axis: 7318 km
RCS: 0.0129 m2 (small)
Launch date: May 10, 1999
Source: People's Republic of China (PRC)
Launch site: Taiyaun Space Center, China (TSC)

Note: This is SATELLITE DEBRIS
aabbcc
Your satellite tracking list
Your tracking list is empty




NASA's NSSDC Master Catalog

Two Line Element Set (TLE):
1 31829U 99025CHT 22186.40138699  .00000179  00000-0  16933-3 0  9999
2 31829  98.8889  46.4724 0172525 343.1823 193.8536 13.86722871767244
Source of the keplerian elements: AFSPC